| time (UTC) | temp F | wind direction | speed MPH | gust MPH | rain 1hr in | rain 24hr in | rain mn in | humidity % | barometer mb |
| 20260503235526 | 69 | 290 | 15.0 | 18.0 | 0.00 | 0.00 | 0.00 | 44 | 1010.7 |
| 20260503233527 | 70 | 299 | 12.0 | 18.0 | 0.00 | 0.00 | 0.00 | 43 | 1010.7 |
| 20260503232526 | 70 | 287 | 15.0 | 17.0 | 0.00 | 0.00 | 0.00 | 43 | 1010.7 |
| 20260503231528 | 70 | 276 | 10.0 | 17.0 | 0.00 | 0.00 | 0.00 | 43 | 1010.7 |
| 20260503230527 | 70 | 277 | 8.0 | 10.0 | 0.00 | 0.00 | 0.00 | 43 | 1010.8 |
| 20260503224529 | 71 | 255 | 5.0 | 6.0 | 0.00 | 0.00 | 0.00 | 43 | 1010.8 |
| 20260503223527 | 71 | 255 | 5.0 | 6.0 | 0.00 | 0.00 | 0.00 | 43 | 1010.8 |
| 20260503222527 | 70 | 250 | 7.0 | 10.0 | 0.00 | 0.00 | 0.00 | 45 | 1010.6 |
| 20260503221530 | 70 | 240 | 6.0 | 10.0 | 0.00 | 0.00 | 0.00 | 46 | 1010.6 |
| 20260503220527 | 69 | 241 | 5.0 | 10.0 | 0.00 | 0.00 | 0.00 | 49 | 1010.6 |
| 20260503214529 | 68 | 257 | 3.0 | 11.0 | 0.00 | 0.00 | 0.00 | 49 | 1010.6 |
| 20260503213526 | 68 | 249 | 3.0 | 10.0 | 0.00 | 0.00 | 0.00 | 49 | 1010.6 |
| 20260503212528 | 68 | 259 | 2.0 | 11.0 | 0.00 | 0.00 | 0.00 | 49 | 1010.6 |
| 20260503211529 | 69 | 284 | 2.0 | 11.0 | 0.00 | 0.00 | 0.00 | 49 | 1010.6 |
| 20260503210528 | 69 | 296 | 3.0 | 12.0 | 0.00 | 0.00 | 0.00 | 48 | 1010.3 |
| 20260503205527 | 69 | 284 | 3.0 | 11.0 | 0.00 | 0.00 | 0.00 | 47 | 1010.3 |
| 20260503204529 | 70 | 255 | 6.0 | 13.0 | 0.00 | 0.00 | 0.00 | 46 | 1010.3 |
| 20260503203526 | 70 | 260 | 8.0 | 13.0 | 0.00 | 0.00 | 0.00 | 46 | 1010.3 |
| 20260503202526 | 71 | 257 | 7.0 | 13.0 | 0.00 | 0.00 | 0.00 | 44 | 1010.3 |
| 20260503201528 | 71 | 265 | 9.0 | 12.0 | 0.00 | 0.00 | 0.00 | 44 | 1010.3 |
| 20260503200527 | 72 | 255 | 8.0 | 9.0 | 0.00 | 0.00 | 0.00 | 43 | 1010.0 |
| 20260503195527 | 72 | 257 | 8.0 | 10.0 | 0.00 | 0.00 | 0.00 | 42 | 1010.0 |
| 20260503194528 | 72 | 130 | 3.0 | 5.0 | 0.00 | 0.00 | 0.00 | 43 | 1010.0 |
| 20260503193528 | 71 | 135 | 3.0 | 6.0 | 0.00 | 0.00 | 0.00 | 44 | 1010.0 |
| 20260503192527 | 71 | 136 | 2.0 | 6.0 | 0.00 | 0.00 | 0.00 | 43 | 1010.0 |
| 20260503191528 | 72 | 142 | 0.0 | 6.0 | 0.00 | 0.00 | 0.00 | 42 | 1010.0 |
| 20260503190527 | 73 | 237 | 0.0 | 10.0 | 0.00 | 0.00 | 0.00 | 41 | 1009.7 |
| 20260503185527 | 74 | 238 | 2.0 | 10.0 | 0.00 | 0.00 | 0.00 | 40 | 1009.7 |
| 20260503184530 | 74 | 234 | 6.0 | 9.0 | 0.00 | 0.00 | 0.00 | 39 | 1009.7 |
| 20260503183527 | 75 | 225 | 5.0 | 9.0 | 0.00 | 0.00 | 0.00 | 38 | 1009.7 |
| 20260503182527 | 76 | 223 | 4.0 | 10.0 | 0.00 | 0.00 | 0.00 | 37 | 1009.7 |
| 20260503181529 | 76 | 244 | 6.0 | 11.0 | 0.00 | 0.00 | 0.00 | 35 | 1009.7 |
| 20260503180528 | 77 | 245 | 8.0 | 15.0 | 0.00 | 0.00 | 0.00 | 35 | 1009.8 |
| 20260503175527 | 78 | 241 | 7.0 | 13.0 | 0.00 | 0.00 | 0.00 | 34 | 1009.8 |
| 20260503174530 | 78 | 238 | 7.0 | 14.0 | 0.00 | 0.00 | 0.00 | 33 | 1009.8 |
| 20260503173527 | 79 | 240 | 8.0 | 13.0 | 0.00 | 0.00 | 0.00 | 32 | 1009.8 |
| 20260503171531 | 80 | 225 | 7.0 | 16.0 | 0.00 | 0.00 | 0.00 | 31 | 1009.8 |
| 20260503170527 | 80 | 235 | 6.0 | 15.0 | 0.00 | 0.00 | 0.00 | 30 | 1009.9 |
| 20260503150529 | 84 | 277 | 10.0 | 22.0 | 0.00 | 0.00 | 0.00 | 30 | 1011.0 |
| 20260503130527 | 85 | 250 | 16.0 | 24.0 | 0.00 | 0.00 | 0.00 | 31 | 1012.0 |
| 20260503110528 | 85 | 216 | 11.0 | 14.0 | 0.00 | 0.00 | 0.00 | 31 | 1013.1 |
| 20260503081529 | 70 | 180 | 6.0 | 9.0 | 0.00 | 0.00 | 0.00 | 49 | 1013.8 |
| 20260503071530 | 64 | 181 | 4.0 | 6.0 | 0.00 | 0.00 | 0.00 | 54 | 1013.9 |
| 20260503070527 | 63 | 183 | 4.0 | 8.0 | 0.00 | 0.00 | 0.00 | 55 | 1014.0 |
| 20260503053527 | 58 | 199 | 5.0 | 6.0 | 0.00 | 0.00 | 0.00 | 58 | 1013.9 |
| 20260503052527 | 58 | 206 | 4.0 | 7.0 | 0.00 | 0.00 | 0.00 | 58 | 1013.9 |
| 20260503051529 | 58 | 153 | 4.0 | 7.0 | 0.00 | 0.00 | 0.00 | 58 | 1013.9 |
| 20260503050527 | 57 | 170 | 4.0 | 6.0 | 0.00 | 0.00 | 0.00 | 58 | 1014.0 |
| 20260503045526 | 57 | 157 | 6.0 | 6.0 | 0.00 | 0.00 | 0.00 | 58 | 1014.0 |
| 20260503042527 | 57 | 191 | 3.0 | 6.0 | 0.00 | 0.00 | 0.00 | 58 | 1014.0 |
| 20260503041529 | 57 | 169 | 4.0 | 6.0 | 0.00 | 0.00 | 0.00 | 57 | 1014.0 |
| 20260503040528 | 57 | 168 | 3.0 | 6.0 | 0.00 | 0.00 | 0.00 | 57 | 1014.2 |
| 20260503035527 | 57 | 156 | 4.0 | 5.0 | 0.00 | 0.00 | 0.00 | 56 | 1014.2 |
| 20260503034527 | 57 | 134 | 4.0 | 6.0 | 0.00 | 0.00 | 0.00 | 56 | 1014.2 |
| 20260503033527 | 58 | 139 | 5.0 | 5.0 | 0.00 | 0.00 | 0.00 | 56 | 1014.2 |
| 20260503032525 | 58 | 132 | 5.0 | 6.0 | 0.00 | 0.00 | 0.00 | 55 | 1014.2 |
| 20260503031529 | 58 | 150 | 5.0 | 6.0 | 0.00 | 0.00 | 0.00 | 55 | 1014.2 |
| 20260503030527 | 58 | 142 | 4.0 | 5.0 | 0.00 | 0.00 | 0.00 | 54 | 1014.3 |
| 20260503025527 | 58 | 147 | 4.0 | 5.0 | 0.00 | 0.00 | 0.00 | 54 | 1014.3 |
| 20260503024528 | 59 | 139 | 4.0 | 5.0 | 0.00 | 0.00 | 0.00 | 54 | 1014.3 |
| 20260503022527 | 59 | 131 | 2.0 | 5.0 | 0.00 | 0.00 | 0.00 | 53 | 1014.3 |
| 20260503020530 | 60 | 138 | 4.0 | 6.0 | 0.00 | 0.00 | 0.00 | 52 | 1014.6 |
| 20260503015527 | 60 | 130 | 4.0 | 5.0 | 0.00 | 0.00 | 0.00 | 52 | 1014.6 |
| 20260503014528 | 60 | 160 | 2.0 | 6.0 | 0.00 | 0.00 | 0.00 | 52 | 1014.6 |
| 20260503013527 | 60 | 153 | 2.0 | 6.0 | 0.00 | 0.00 | 0.00 | 52 | 1014.6 |
| 20260503011529 | 60 | 162 | 3.0 | 6.0 | 0.00 | 0.00 | 0.00 | 52 | 1014.6 |
| 20260503010527 | 60 | 160 | 3.0 | 7.0 | 0.00 | 0.00 | 0.00 | 53 | 1015.0 |
| 20260503005526 | 60 | 169 | 3.0 | 8.0 | 0.00 | 0.00 | 0.00 | 53 | 1015.0 |
| 20260503003525 | 60 | 169 | 1.0 | 8.0 | 0.00 | 0.00 | 0.00 | 53 | 1015.0 |
| 20260503002526 | 60 | 158 | 2.0 | 7.0 | 0.00 | 0.00 | 0.00 | 53 | 1015.0 |
| 20260503001529 | 60 | 162 | 5.0 | 8.0 | 0.00 | 0.00 | 0.00 | 54 | 1015.0 |
| 20260503000528 | 60 | 150 | 6.0 | 8.0 | 0.00 | 0.00 | 0.00 | 54 | 1015.5 |